Regional Weather Roundup
Issued by NWS

Home | Current Version | Previous Version | Graphics & Text | Print | Product List | Glossary On
Versions: 1 2 3 4 5 6 7 8 9 10 11 12 13 14 15 16 17 18 19 20 21 22 23 24 25 26 27 28 29 30 31 32 33 34 35 36 37 38 39 40 41 42 43 44 45 46 47 48 49 50
000
ASUS43 KFSD 312110
RWRSD

WEATHER ROUNDUP FOR SOUTH DAKOTA
NATIONAL WEATHER SERVICE SIOUX FALLS SD
400 PM CDT SUN AUG 31 2014

NOTE: "FAIR" INDICATES FEW OR NO CLOUDS BELOW 12,000 FEET WITH NO
SIGNIFICANT WEATHER AND/OR OBSTRUCTIONS TO VISIBILITY.


SDZ001>005-009-010-012>017-312200-
NORTHWEST AND NORTH CENTRAL SOUTH DAKOTA

CITY           SKY/WX    TMP DP  RH WIND       PRES   REMARKS
BUFFALO          N/A     70  50  49 VRB3      29.71S
FAITH            N/A     65  57  75 NW8       29.75S
MOBRIDGE       CLOUDY    72  59  63 W8        29.69F
$$

SDZ012>016-024>037-041>051-057-063-072>074-312200-
SOUTHWEST AND SOUTH CENTRAL SOUTH DAKOTA

CITY           SKY/WX    TMP DP  RH WIND       PRES   REMARKS
RAPID CTY ARPT LGT RAIN  61  57  87 N6        29.79S
PIERRE         CLOUDY    69  60  73 SW6       29.71F
CUSTER         TSTM      58  50  75 NW7       29.85R
ELLSWORTH AFB  LGT RAIN  61  57  87 NE7       29.78
PHILIP         PTSUNNY   74  56  53 VRB6      29.71F
PINE RIDGE     MOSUNNY   73  51  46 S3        29.74F
WINNER         FAIR      66  61  84 SE7       29.73F
$$

SDZ004>011-016>023-039-040-312200-
NORTHEAST SOUTH DAKOTA

CITY           SKY/WX    TMP DP  RH WIND       PRES   REMARKS
ABERDEEN       CLOUDY    66  65  96 S9        29.70S
WATERTOWN      PTSUNNY   74  63  68 W15       29.72R
SISSETON         N/A     73  64  73 NW7       29.67R
$$

SDZ017-020-022-023-036>040-048>070-312200-
SOUTHEAST SOUTH DAKOTA

CITY           SKY/WX    TMP DP  RH WIND       PRES   REMARKS
SIOUX FALLS    CLOUDY    80  63  55 W10       29.72R
HURON          LGT RAIN  67  59  75 NW9       29.73S
CHAMBERLAIN    CLOUDY    64  61  88 N3        29.72F
MITCHELL       PTSUNNY   73  63  70 NW13      29.72F
YANKTON        PTSUNNY   79  64  61 NW7       29.71F
$$

ABBREVIATIONS USED IN REMARKS
   TC - TEMPERATURE IN CELSIUS
  WCI - WIND CHILL INDEX
   HX - HEAT INDEX
  VSB - VISIBILITY



USA.gov is the U.S. government's official web portal to all federal, state and local government web resources and services.